This is the latest recevied weather packets stored in our database for station/object KB3HLL. If no packets are shown the sender has not sent any weather packets the latest 10 day(s).
| Time | Temp. | Humidity | Pressure | Rain* | Wind** | Luminosity | Snow |
|---|---|---|---|---|---|---|---|
| 1777760177 | 6.67° C | 70% | 1012.9 hPa | 0 mm | - | 141 W/m² | - |
| 1777759877 | 6.67° C | 70% | 1012.9 hPa | 0 mm | - | 165 W/m² | - |
| 1777759578 | 7.22° C | 68% | 1012.9 hPa | 0 mm | - | 183 W/m² | - |
| 1777759278 | 7.22° C | 68% | 1012.8 hPa | 0 mm | - | 263 W/m² | - |
| 1777758978 | 7.22° C | 69% | 1012.8 hPa | 0 mm | - | 270 W/m² | - |
| 1777758678 | 7.22° C | 69% | 1013 hPa | 0 mm | - | 350 W/m² | - |
| 1777758377 | 7.22° C | 69% | 1012.9 hPa | 0 mm | - | 180 W/m² | - |
| 1777758078 | 7.78° C | 69% | 1012.9 hPa | 0 mm | - | 169 W/m² | - |
| 1777757777 | 7.78° C | 67% | 1012.9 hPa | 0 mm | - | 339 W/m² | - |
| 1777757477 | 7.78° C | 68% | 1012.8 hPa | 0 mm | - | 378 W/m² | - |
| 1777757177 | 7.78° C | 67% | 1012.7 hPa | 0 mm | - | 365 W/m² | - |
| 1777756878 | 7.78° C | 67% | 1012.7 hPa | 0 mm | - | 276 W/m² | - |
| 1777756578 | 7.78° C | 68% | 1012.7 hPa | 0 mm | - | 466 W/m² | - |
| 1777756278 | 7.78° C | 67% | 1012.7 hPa | 0 mm | - | 451 W/m² | - |
| 1777755978 | 7.78° C | 68% | 1012.8 hPa | 0 mm | - | 421 W/m² | - |
| 1777755677 | 7.22° C | 68% | 1012.8 hPa | 0 mm | - | 336 W/m² | - |
| 1777755377 | 7.22° C | 68% | 1012.8 hPa | 0 mm | - | 371 W/m² | - |
| 1777755078 | 7.22° C | 68% | 1012.7 hPa | 0 mm | - | 472 W/m² | - |
| 1777754778 | 7.22° C | 69% | 1012.7 hPa | 0 mm | - | 522 W/m² | - |
| 1777754478 | 7.22° C | 68% | 1012.8 hPa | 0 mm | - | 339 W/m² | - |
| 1777754177 | 7.22° C | 69% | 1012.9 hPa | 0 mm | - | 467 W/m² | - |
| 1777753877 | 7.22° C | 70% | 1012.9 hPa | 0 mm | - | 344 W/m² | - |
| 1777753577 | 7.22° C | 70% | 1013 hPa | 0 mm | - | 287 W/m² | - |
| 1777753285 | 7.22° C | 69% | 1013.1 hPa | 0 mm | - | 230 W/m² | - |
| 1777752977 | 7.78° C | 65% | 1013 hPa | 0 mm | - | 254 W/m² | - |
* Rain latest hour (hover to see other rain measurements)
** Current wind speed in m/s (hover to see current wind gust speed)